sat.trackr.live / text

‹ back to catalog

KUIPER-00155

NORAD 65774 · 2025-217N

PAYLOAD ACTIVE UNKNOWN

§ Identity

Operator
Country
US
Launch date
2025-09-25
Launch site
AFETR
Launch vehicle
Mass (kg)
RCS (m²)

External: N2YO · Heavens-Above · Gunter

§ Orbital elements

Epoch: 2026-09-20T03:36:18.825696Z

Period
97.30 min
Inclination
51.9010°
Eccentricity
0.0000915
Mean motion
14.79925504 rev/d
Perigee alt
628.9 km
Apogee alt
630.2 km
Semi-major
7,007.7 km
B*
-2.0748e-4
RAAN
218.2508°
Arg perigee
62.2279°
Mean anomaly
297.8777°
Rev number
5,430

§ Raw data

KUIPER-001551 65774U 25217N   26263.15021789 -.00001802  00000+0 -20748-3 0  99942 65774  51.9010 218.2508 0000915  62.2279 297.8777 14.79925504 54301

JSON: /api/v1/satellites/65774 · /tle

For live sub-satellite position, see the globe view (requires WebGL).

§ Visibility from observer

Set your observer location to see the next 7 days of passes ≥ 10°. The values pass through the URL so the page stays shareable.

No JS? Fill the form by hand. The geolocation button needs JavaScript.